カタログに戻る

CENTISPACE-1 S14

運用中ナビゲーションLEO
NORAD 62583·PAYLOAD·🇨🇳 China

打ち上げ Jan 13, 2025 から Yellow Sea Launch Area

Loading…

次のパス (今後24時間)

TLE

最新Source: Space-Track

元期: Sep 14, 2026, 14:59 UTC

1 62583U 25007J   26257.62454327 -.00000052  00000-0  83480-4 0  9998
2 62583  54.9862 339.8428 0009066 267.3039  92.6879 13.80623039 87065

AllMySatでCENTISPACE-1 S14をリアルタイム追跡

Download on the App Store